CZ-11 R/B, 43872

Orbit data source: Space-Track

CZ-11 R/B, 43872 is space debris in SSO originally from a launch on Fri, 21 Dec 2018 UTC launched from the Jiuquan Satellite Launch Center, China (JSC). Debris objects in space refer to the collection of defunct objects orbiting the Earth. Examples of debris include non-operational satellites, rocket bodies, and fragments generated from explosions, collisions, or faulty payload assembly.

Loading next visibility...
Identifier
43872, 2018-108B
Orbit
SSO
Country
Flag of CNCN / PRC
Related business
Manufacturer
CALT
Mission
Spacecraft
Bus & Motor
CZ-11-4, Unknown motor
Mass
500 kg wet, 500 kg dry
Launch date (UTC)
2018-12-21 (7 years ago)
Launch vehicle
Unknown
Launch site
Jiuquan Satellite Launch Center, China (JSC)
Object type
Payload
Rocket body
Debris
Shape & HBR
Cyl, 0.8 m
Radar Cross Section
2.651 m², Large (>1 m²)

Expand to show TLE details & history
Last TLE update: 5 hours ago

TLE from 5 hours ago
0 CZ-11 R/B
1 43872U 18108B   26123.59012206  .00000296  00000-0  14492-3 0  9991
2 43872 100.3705 184.5512 0330799  38.9593 323.4908 14.01854231376651
Epoch: 2026-05-03T14:09Z
TLE epoch observation values (Epoch: 2026-05-03T14:09:46.545Z)
Latitude
-0.00009°
Longitude
110.61579°
Altitude
699.93 km
Speed
7.604 km/s
True Right ascension
12h 18m 12s
True Declination
0° 00' 00"
Sunlit
Object was in full shadow at epoch
Visualization orbit readout
Latitude
Unknown
Longitude
Unknown
Altitude
Unknown
Speed
Unknown
Apparent Right ascension
Unknown
Apparent Declination
Unknown
Sunlit
N/A
Visualization observer readout
Local Sidereal Time
02:41:44
Azimuth
Unknown
Elevation
Unknown
Doppler factor
Unknown
Orbital elements
Apogee altitude
1,124.898 km
Perigee altitude
644.394 km
Semi-major axis
7,262.783 km
Eccentricity
0.03308
Inclination
100.3705°
RAAN
184.5512°
Arg. of periapsis
38.9593°
True anomaly
321.15876°
Mean anomaly
323.4908°
Eccentric anomaly
322.3326°
Mean motion
3.50662 °/min
Orbital period
102.66 mins
BSTAR
0.00014492
Loading maneuver chart data...
Computing Atmospheric mass density...
Loading historical data...
Loading historical data...
Loading historical data...
Loading historical data...
Loading historical data...
Loading historical data...
Loading historical data...
Other satellites on launch #108 in the year 2018 (2018-12-21 UTC)

Documentation

Showing up to 5 results
|